Regional Weather Roundup
Issued by NWS

Home | Current Version | Previous Version | Graphics & Text | Print | Product List | Glossary On
Versions: 1 2 3 4 5 6 7 8 9 10 11 12 13 14 15 16 17 18 19 20 21 22 23 24 25 26 27
000
ASUS45 KCYS 300910
RWRWY

WYOMING REGIONAL WEATHER ROUNDUP
NATIONAL WEATHER SERVICE CHEYENNE WY
300 AM MDT SUN APR 30 2017

NOTE:  "FAIR" INDICATES FEW OR NO CLOUDS BELOW 12,000 FEET
WITH NO SIGNIFICANT WEATHER AND/OR OBSTRUCTIONS TO VISIBILITY.

WYZ001-301000-
YELLOWSTONE NATIONAL PARK

CITY           SKY/WX    TMP DP  RH WIND       PRES   REMARKS
LK YELLOWSTONE   N/A     17  15  92 CALM      30.16F
W YELLOWSTONE  NOT AVBL

$$
WYZ002>013-054>058-071-098>099-301000-
NORTHERN WYOMING

CITY           SKY/WX    TMP DP  RH WIND       PRES   REMARKS
JACKSON        FAIR      27  25  93 CALM      30.16F
CODY           FAIR      32  28  85 CALM      30.08F
GREYBULL       FAIR      35  25  66 E7        30.10F WCI  29
WORLAND        FAIR      33  29  85 SE10      30.10F WCI  25
SHERIDAN       FAIR      28  22  78 CALM      30.07F
BUFFALO        FAIR      33  15  47 W9        30.07F WCI  25
GILLETTE       FAIR      27  19  72 S15       30.09F WCI  15
HULETT         FAIR      28  21  74 SW3       30.10F
NEWCASTLE      FAIR      30  25  80 N6        30.12F WCI  24

$$
WYZ014>020-022>026-101>103-301000-
CENTRAL WYOMING

CITY           SKY/WX    TMP DP  RH WIND       PRES   REMARKS
BIG PINEY      FAIR      21  17  84 CALM      30.17F
PINEDALE       PTSUNNY   19  18  93 CALM      30.18F
DUBOIS         FAIR      25  19  80 NW10      30.13F WCI  15
LANDER         FAIR      28  17  63 SW7       30.12F WCI  21
RIVERTON       FAIR      26  21  81 NE3       30.13F
CASPER         FAIR      26  22  84 SW9       30.12F WCI  17
DOUGLAS        FAIR      24  20  84 NW8       30.12F WCI  15

$$
WYZ021-027>030-104>119-301000-
SOUTHERN WYOMING

CITY           SKY/WX    TMP DP  RH WIND       PRES   REMARKS
EVANSTON       FAIR      29  21  72 S6        30.20F WCI  23
KEMMERER         N/A     28  23  80 NW3       30.18F
FORT BRIDGER   FAIR      32  21  64 W12       30.21F WCI  23
ROCK SPRINGS   FAIR      27  19  72 W8        30.16F WCI  19
DIXON            N/A     23  19  85 CALM      30.19S
RAWLINS        FAIR      19  14  81 NW3       30.14F
SARATOGA       FAIR      18  18 100 CALM      30.15S
LARAMIE        FAIR      12   9  87 SE8       30.09F WCI   0
CHEYENNE       FAIR      27  15  61 NW13      30.05F WCI  16
TORRINGTON     FAIR      29  23  78 NW10      30.07F WCI  20
PINE BLUFFS    FAIR      27  23  86 NW7       30.07F WCI  19

$$




USA.gov is the U.S. government's official web portal to all federal, state and local government web resources and services.